Weather History for KLYH - December, 2011

Change the Weather History Date:

Saturday, December 17, 2011

  Actual Average Record
Temperature  
Mean Temperature 35 °F 37 °F  
Max Temperature 44 °F 47 °F 76 °F (1924)
Min Temperature 26 °F 27 °F 3 °F (1989)
Degree Days  
Heating Degree Days 30 28  
Month to date heating degree days 372 443  
Since 1 July heating degree days 1154 1337  
Cooling Degree Days 0 0  
Month to date cooling degree days 0 0  
Year to date cooling degree days 1346 1032  
Moisture  
Dew Point 29 °F    
Average Humidity 72    
Maximum Humidity 100    
Minimum Humidity 43    
Precipitation  
Precipitation 0.00 in 0.10 in 0.82 in (1906)
Month to date precipitation 3.09 1.89  
Year to date precipitation 37.46 40.22  
Snow  
Snow 0.00 in - - ()
Month to date snowfall 0.0  
Since 1 July snowfall T  
Snow Depth 0.00 in    
Sea Level Pressure  
Sea Level Pressure 30.20 in    
Wind  
Wind Speed 2 mph (WNW)    
Max Wind Speed 9 mph    
Max Gust Speed 17 mph    
Visibility 7 miles    
Events      
T = Trace of Precipitation, MM = Missing Value Source: NWS Daily Summary

Daily Weather History Graph

Daily Weather History Graph

Search for Another Location

Airport or City:

Trip Planner

Search our weather history database for the weather conditions in past years. The results will help you decide how hot, cold, wet, or windy it might be!

Date:

Astronomy

Dec. 17, 2011 Rise Set
Actual Time 7:24 AM EST 5:00 PM EST
Civil Twilight 6:55 AM EST 5:30 PM EST
Nautical Twilight 6:22 AM EST 6:02 PM EST
Astronomical Twilight 5:51 AM EST 6:34 PM EST
Moon No Moon Rise 11:47 AM EST (12/17)
Length of Visible Light 10h 34m
Length of Day
9h 36m
Waning Gibbous, 54% of the Moon is Illuminated
Dec 17
Waning Gibbous
Dec 17
Last Quarter
Dec 24
New
Jan 1
First Quarter
Jan 9
Full

Hourly Weather History & Observations

Time (EST) Temp. Windchill Dew Point Humidity Pressure Visibility Wind Dir Wind Speed Gust Speed Precip Events Conditions
12:54 AM 37.4 °F - 37.4 °F 100% 30.17 in 8.0 mi Calm Calm - N/A   Overcast
1:54 AM 37.4 °F - 37.4 °F 100% 30.14 in 9.0 mi Calm Calm - N/A   Overcast
2:28 AM 35.6 °F - 35.6 °F 100% 30.16 in 2.5 mi Calm Calm - N/A   Scattered Clouds
2:35 AM 35.6 °F - 35.6 °F 100% 30.16 in 4.0 mi Calm Calm - N/A   Partly Cloudy
2:54 AM 34.0 °F - 34.0 °F 100% 30.17 in 4.0 mi Calm Calm - N/A   Clear
3:04 AM 33.8 °F - 33.8 °F 100% 30.15 in 2.0 mi Calm Calm - N/A   Partly Cloudy
3:06 AM 33.8 °F - 33.8 °F 100% 30.15 in 1.2 mi Calm Calm - N/A   Partly Cloudy
3:09 AM 33.8 °F - 33.8 °F 100% 30.15 in 0.8 mi Calm Calm - N/A   Mist
3:24 AM 33.8 °F - 33.8 °F 100% 30.16 in 2.0 mi Calm Calm - N/A   Partly Cloudy
3:35 AM 33.8 °F - 32.0 °F 93% 30.16 in 1.5 mi Calm Calm - N/A   Partly Cloudy
3:40 AM 32.0 °F 28.7 °F 32.0 °F 100% 30.16 in 3.0 mi WNW 3.5 mph - N/A   Partly Cloudy
3:54 AM 34.0 °F 31.0 °F 33.1 °F 96% 30.18 in 4.0 mi WNW 3.5 mph - N/A   Clear
4:54 AM 34.0 °F 29.8 °F 33.1 °F 96% 30.18 in 9.0 mi NNW 4.6 mph - N/A   Clear
5:54 AM 32.0 °F - 30.0 °F 92% 30.21 in 10.0 mi Calm Calm - N/A   Clear
6:54 AM 32.0 °F - 30.0 °F 92% 30.22 in 10.0 mi Calm Calm - N/A   Clear
7:54 AM 30.2 °F - 28.4 °F 93% 30.23 in 7.0 mi Calm Calm - N/A   Clear
8:54 AM 37.0 °F - 32.0 °F 82% 30.25 in 10.0 mi Calm Calm - N/A   Clear
9:54 AM 37.9 °F 34.4 °F 27.0 °F 65% 30.26 in 10.0 mi WNW 4.6 mph - N/A   Clear
10:54 AM 41.0 °F 39.0 °F 28.0 °F 60% 30.24 in 10.0 mi Variable 3.5 mph - N/A   Clear
11:54 AM 41.0 °F 39.0 °F 28.0 °F 60% 30.23 in 10.0 mi Variable 3.5 mph - N/A   Mostly Cloudy
12:54 PM 41.0 °F 37.1 °F 26.1 °F 55% 30.19 in 10.0 mi West 5.8 mph - N/A   Scattered Clouds
1:54 PM 44.1 °F 40.8 °F 25.0 °F 47% 30.17 in 10.0 mi Variable 5.8 mph - N/A   Partly Cloudy
2:54 PM 42.8 °F 40.1 °F 24.8 °F 49% 30.16 in 10.0 mi Variable 4.6 mph - N/A   Clear
3:54 PM 42.1 °F 37.1 °F 21.9 °F 45% 30.19 in 10.0 mi WNW 8.1 mph - N/A   Clear
4:54 PM 37.9 °F 35.5 °F 21.9 °F 53% 30.21 in 10.0 mi Variable 3.5 mph - N/A   Clear
5:54 PM 36.0 °F 33.3 °F 21.0 °F 55% 30.22 in 10.0 mi West 3.5 mph - N/A   Clear
6:54 PM 32.0 °F 28.7 °F 21.0 °F 64% 30.22 in 10.0 mi WSW 3.5 mph - N/A   Clear
7:54 PM 30.9 °F 27.5 °F 21.9 °F 69% 30.23 in 10.0 mi West 3.5 mph - N/A   Clear
8:54 PM 28.9 °F - 21.9 °F 75% 30.24 in 10.0 mi Calm Calm - N/A   Clear
9:54 PM 28.0 °F - 21.9 °F 78% 30.24 in 10.0 mi Calm Calm - N/A   Clear
10:54 PM 30.0 °F - 21.0 °F 69% 30.24 in 10.0 mi Calm Calm - N/A   Clear
11:54 PM 27.0 °F - 21.0 °F 78% 30.25 in 10.0 mi Calm Calm - N/A   Clear